FW5433 Weather Reports


time (UTC)temp
F
wind
direction
speed
knots
gust
knots
rain 1hr
in
rain 24hr
in
rain mn
in
humidity
%
barometer
mb
20260504221637 78 113 0.9 3.5 0.00 0.17 0.17 61 1002.2
20260504220516 77 113 0.9 3.5 0.00 0.17 0.17 63 1002.2
20260504215536 76 113 1.7 4.3 0.00 0.17 0.17 63 1002.2
20260504214516 74 113 0.9 4.3 0.00 0.17 0.17 71 1002.1
20260504213516 73 0.0 1.7 0.00 0.17 0.17 76 1002.2
20260504212516 73 113 0.9 2.6 0.00 0.17 0.17 76 1002.3
20260504211516 72 113 0.9 1.7 0.00 0.17 0.17 80 1002.6
20260504210515 71 0.0 0.0 0.00 0.17 0.17 80 1002.7
20260504205516 71 113 0.9 3.5 0.00 0.17 0.17 78 1002.8
20260504204515 69 135 1.7 3.5 0.01 0.17 0.17 82 1002.9
20260504203535 67 158 1.7 4.3 0.01 0.17 0.17 85 1003.0
20260504202515 66 135 1.7 4.3 0.05 0.17 0.17 86 1003.1
20260504201515 65 0.0 1.7 0.09 0.17 0.17 87 1003.1
20260504200515 64 158 0.9 3.5 0.17 0.17 0.17 87 1002.8
20260504195515 64 135 4.3 7.0 0.17 0.17 0.17 88 1002.1
20260504194555 64 0.0 2.6 0.16 0.16 0.16 91 1003.9
20260504193516 64 158 0.9 3.5 0.16 0.16 0.16 89 1003.3
20260504192515 65 135 1.7 4.3 0.12 0.12 0.12 85 1003.7
20260504191536 67 0 1.7 6.1 0.08 0.08 0.08 78 1004.6
20260504190515 71 0 2.6 6.1 0.00 0.00 0.00 67 1004.3
20260504185555 72 0.0 0.9 0.00 0.00 0.00 62 1004.3
20260504184515 72 0.0 1.7 0.00 0.00 0.00 60 1004.4
20260504183515 73 0.0 1.7 0.00 0.00 0.00 58 1004.7
20260504182515 73 0.0 1.7 0.00 0.00 0.00 58 1004.9
20260504181515 73 158 0.9 3.5 0.00 0.00 0.00 60 1004.8
20260504180515 72 158 1.7 5.2 0.00 0.00 0.00 61 1004.5
20260504175515 71 90 1.7 4.3 0.00 0.00 0.00 61 1004.6
20260504174515 71 0.0 0.9 0.00 0.00 0.00 64 1004.8
20260504173515 70 135 1.7 3.5 0.00 0.00 0.00 65 1004.8
20260504172515 69 113 1.7 4.3 0.00 0.00 0.00 70 1004.7
20260504171515 67 158 0.9 1.7 0.00 0.00 0.00 70 1005.2
20260504170515 67 0.0 0.0 0.00 0.00 0.00 69 1005.7
20260504150515 70 0.0 1.7 0.00 0.00 0.00 61 1007.3
20260504140515 67 113 0.9 3.5 0.00 0.00 0.00 68 1007.0
20260504130516 64 158 0.9 5.2 0.00 0.00 0.00 72 1007.7
20260504110516 58 0.0 0.0 0.00 0.00 0.00 79 1008.0
20260504100516 59 0.0 1.7 0.00 0.00 0.00 79 1007.7
20260504081516 60 0.0 0.9 0.00 0.00 0.00 76 1007.6
20260504080516 60 0.0 0.0 0.00 0.00 0.00 76 1007.7
20260504050515 65 113 0.9 2.6 0.00 0.00 0.00 61 1007.5
20260504045515 65 158 0.9 4.3 0.00 0.00 0.00 61 1007.7
20260504044515 65 0.0 1.7 0.00 0.00 0.00 59 1008.0
20260504043515 66 158 0.9 2.6 0.00 0.00 0.00 58 1008.3
20260504042515 66 158 0.9 2.6 0.00 0.00 0.00 58 1008.5
20260504041515 66 135 0.9 2.6 0.00 0.00 0.00 57 1008.7
20260504040535 66 0.0 1.7 0.00 0.00 0.00 57 1008.8
20260504035535 66 158 0.9 3.5 0.00 0.00 0.00 57 1008.9
20260504034515 66 180 0.9 1.7 0.00 0.00 0.00 57 1009.0
20260504033514 66 0.0 0.0 0.00 0.00 0.00 57 1009.1
20260504032515 66 0.0 1.7 0.00 0.00 0.00 57 1009.0
20260504031517 66 0.0 2.6 0.00 0.00 0.00 56 1008.9
20260504030517 66 135 0.9 1.7 0.00 0.00 0.00 55 1008.9
20260504025517 67 135 0.9 2.6 0.00 0.00 0.00 55 1008.8
20260504024537 67 158 0.9 3.5 0.00 0.00 0.00 54 1008.8
20260504023516 68 135 0.9 3.5 0.00 0.00 0.00 53 1008.8
20260504022537 68 158 0.9 2.6 0.00 0.00 0.00 52 1008.8
20260504021516 68 158 0.9 1.7 0.00 0.00 0.00 52 1008.7
20260504020537 69 158 0.9 2.6 0.00 0.00 0.00 51 1008.6
20260504015537 69 135 0.9 2.6 0.00 0.00 0.00 50 1008.5
20260504014517 69 135 0.9 2.6 0.00 0.00 0.00 49 1008.4
20260504013516 70 135 0.9 1.7 0.00 0.00 0.00 48 1008.3
20260504012516 70 135 0.9 1.7 0.00 0.00 0.00 48 1008.3
20260504011517 71 158 0.9 1.7 0.00 0.00 0.00 47 1008.4
20260504010516 72 158 0.9 1.7 0.00 0.00 0.00 46 1008.3
20260504005516 72 0.0 1.7 0.00 0.00 0.00 43 1008.3
20260504004516 73 0.0 0.0 0.00 0.00 0.00 43 1008.2
20260504003516 74 0.0 0.9 0.00 0.00 0.00 43 1008.2
20260504002516 75 0.0 1.7 0.00 0.00 0.00 41 1008.3
20260504001536 76 0.0 1.7 0.00 0.00 0.00 39 1008.4
20260504000536 77 0.0 3.5 0.00 0.00 0.00 38 1008.4
20260503235516 77 203 0.9 4.3 0.00 0.00 0.00 37 1008.5
20260503234516 77 0.0 3.5 0.00 0.00 0.00 38 1008.5
20260503233516 78 203 0.9 4.3 0.00 0.00 0.00 37 1008.6
20260503232516 78 180 0.9 2.6 0.00 0.00 0.00 35 1008.6
20260503231516 78 203 0.9 1.7 0.00 0.00 0.00 40 1008.6
20260503230516 78 293 0.9 3.5 0.00 0.00 0.00 36 1008.7
20260503225536 78 180 1.7 6.1 0.00 0.00 0.00 37 1008.8
20260503224516 78 158 1.7 5.2 0.00 0.00 0.00 33 1008.9
20260503223516 78 180 0.9 1.7 0.00 0.00 0.00 37 1008.9
20260503222516 78 135 0.9 2.6 0.00 0.00 0.00 37 1009.0